Wetterdaten: Dienstag, 18.05.2004
Datum Zeit Temp. A Sch. Temp. A Son. Feuchte A. Luftdruck Regen Wind Richtung Richtung Sonnenschein Helligkeit Taupunkt Windchill
18.05.2004 00:00 11,4 C 12,7 C 84 % 1023 hPa 0,0 l/m 0,0 m/s (0 Bft) O 95 0,00 min 0 lux 8,8 C 11,4 C
18.05.2004 00:05 11,4 C 12,6 C 83 % 1023 hPa 0,0 l/m 0,0 m/s (0 Bft) O 80 0,00 min 0 lux 8,6 C 11,4 C
18.05.2004 00:10 11,3 C 12,4 C 84 % 1023 hPa 0,0 l/m 0,0 m/s (0 Bft) O 80 0,00 min 0 lux 8,7 C 11,3 C
18.05.2004 00:15 11,2 C 12,3 C 84 % 1023 hPa 0,0 l/m 0,0 m/s (0 Bft) O 80 0,00 min 0 lux 8,6 C 11,2 C
18.05.2004 00:20 11,0 C 12,2 C 84 % 1023 hPa 0,0 l/m 0,0 m/s (0 Bft) O 80 0,00 min 0 lux 8,4 C 11,0 C
18.05.2004 00:25 10,9 C 12,2 C 86 % 1023 hPa 0,0 l/m 0,0 m/s (0 Bft) O 80 0,00 min 0 lux 8,7 C 10,9 C
18.05.2004 00:30 10,7 C 12,1 C 86 % 1023 hPa 0,0 l/m 0,0 m/s (0 Bft) O 80 0,00 min 0 lux 8,5 C 10,7 C
18.05.2004 00:35 10,5 C 12,0 C 86 % 1023 hPa 0,0 l/m 0,0 m/s (0 Bft) O 80 0,00 min 0 lux 8,3 C 10,5 C
18.05.2004 00:40 10,4 C 11,9 C 86 % 1023 hPa 0,0 l/m 0,0 m/s (0 Bft) O 80 0,00 min 0 lux 8,2 C 10,4 C
18.05.2004 00:45 10,4 C 11,8 C 86 % 1023 hPa 0,0 l/m 0,0 m/s (0 Bft) O 80 0,00 min 0 lux 8,2 C 10,4 C
18.05.2004 00:50 10,2 C 11,8 C 87 % 1023 hPa 0,0 l/m 0,0 m/s (0 Bft) O 80 0,00 min 0 lux 8,1 C 10,2 C
18.05.2004 00:55 9,9 C 11,7 C 88 % 1023 hPa 0,0 l/m 0,0 m/s (0 Bft) O 80 0,00 min 0 lux 8,0 C 9,9 C
18.05.2004 01:00 10,1 C 11,6 C 87 % 1023 hPa 0,0 l/m 0,0 m/s (0 Bft) O 80 0,00 min 0 lux 8,0 C 10,1 C
18.05.2004 01:05 10,4 C 11,4 C 88 % 1023 hPa 0,0 l/m 0,0 m/s (0 Bft) O 80 0,00 min 0 lux 8,5 C 10,4 C
18.05.2004 01:10 10,0 C 11,4 C 87 % 1023 hPa 0,0 l/m 0,0 m/s (0 Bft) O 80 0,00 min 0 lux 7,9 C 10,0 C
18.05.2004 01:15 9,9 C 11,3 C 88 % 1023 hPa 0,0 l/m 0,0 m/s (0 Bft) O-NO 75 0,00 min 0 lux 8,0 C 9,9 C
18.05.2004 01:20 9,8 C 11,2 C 88 % 1023 hPa 0,0 l/m 0,0 m/s (0 Bft) O-NO 75 0,00 min 0 lux 7,9 C 9,8 C
18.05.2004 01:25 9,8 C 11,2 C 89 % 1023 hPa 0,0 l/m 0,0 m/s (0 Bft) O-NO 75 0,00 min 0 lux 8,1 C 9,8 C
18.05.2004 01:30 9,7 C 11,1 C 89 % 1023 hPa 0,0 l/m 0,0 m/s (0 Bft) O-NO 75 0,00 min 0 lux 8,0 C 9,7 C
18.05.2004 01:35 9,7 C 11,0 C 89 % 1023 hPa 0,0 l/m 0,0 m/s (0 Bft) O-NO 75 0,00 min 0 lux 8,0 C 9,7 C
18.05.2004 01:40 9,6 C 11,0 C 89 % 1023 hPa 0,0 l/m 0,0 m/s (0 Bft) O-NO 75 0,00 min 0 lux 7,9 C 9,6 C
18.05.2004 01:45 9,5 C 10,9 C 89 % 1023 hPa 0,0 l/m 0,0 m/s (0 Bft) O-NO 75 0,00 min 0 lux 7,8 C 9,5 C
18.05.2004 01:50 9,5 C 10,8 C 89 % 1023 hPa 0,0 l/m 0,0 m/s (0 Bft) O-NO 75 0,00 min 0 lux 7,8 C 9,5 C
18.05.2004 01:55 9,3 C 10,8 C 89 % 1023 hPa 0,0 l/m 0,0 m/s (0 Bft) O-NO 75 0,00 min 0 lux 7,6 C 9,3 C
18.05.2004 02:00 9,3 C 10,8 C 89 % 1023 hPa 0,0 l/m 0,0 m/s (0 Bft) O-NO 75 0,00 min 0 lux 7,6 C 9,3 C
18.05.2004 02:05 9,6 C 10,7 C 89 % 1023 hPa 0,0 l/m 0,0 m/s (0 Bft) O-NO 75 0,00 min 0 lux 7,9 C 9,6 C
18.05.2004 02:10 9,5 C 10,7 C 90 % 1023 hPa 0,0 l/m 0,0 m/s (0 Bft) O-NO 75 0,00 min 0 lux 7,9 C 9,5 C
18.05.2004 02:15 9,6 C 10,8 C 90 % 1023 hPa 0,0 l/m 0,0 m/s (0 Bft) O-NO 75 0,00 min 0 lux 8,0 C 9,6 C
18.05.2004 02:20 9,7 C 10,8 C 90 % 1023 hPa 0,0 l/m 0,0 m/s (0 Bft) O-NO 75 0,00 min 0 lux 8,1 C 9,7 C
18.05.2004 02:25 9,7 C 10,8 C 90 % 1023 hPa 0,0 l/m 0,0 m/s (0 Bft) O-SO22.5 115 0,00 min 0 lux 8,1 C 9,7 C
18.05.2004 02:30 9,5 C 10,8 C 89 % 1023 hPa 0,0 l/m 0,0 m/s (0 Bft) SO 130 0,00 min 0 lux 7,8 C 9,5 C
18.05.2004 02:35 9,5 C 10,7 C 89 % 1023 hPa 0,0 l/m 0,0 m/s (0 Bft) SO 130 0,00 min 0 lux 7,8 C 9,5 C
18.05.2004 02:40 9,2 C 10,6 C 90 % 1023 hPa 0,0 l/m 0,9 m/s (0 Bft) W-SW22.5 250 0,00 min 0 lux 7,6 C 9,2 C
18.05.2004 02:45 9,4 C 10,6 C 90 % 1023 hPa 0,0 l/m 0,0 m/s (0 Bft) W45 280 0,00 min 0 lux 7,8 C 9,4 C
18.05.2004 02:50 9,5 C 10,5 C 90 % 1023 hPa 0,0 l/m 0,0 m/s (0 Bft) N 355 0,00 min 0 lux 7,9 C 9,5 C
18.05.2004 02:55 9,2 C 10,5 C 90 % 1022 hPa 0,0 l/m 0,0 m/s (0 Bft) N 355 0,00 min 0 lux 7,6 C 9,2 C
18.05.2004 03:00 9,2 C 10,4 C 90 % 1022 hPa 0,0 l/m 0,0 m/s (0 Bft) N 355 0,00 min 0 lux 7,6 C 9,2 C
18.05.2004 03:05 9,3 C 10,4 C 91 % 1022 hPa 0,0 l/m 0,0 m/s (0 Bft) N-NW 335 0,00 min 0 lux 7,9 C 9,3 C
18.05.2004 03:10 9,2 C 10,3 C 91 % 1022 hPa 0,0 l/m 0,0 m/s (0 Bft) N-NW 335 0,00 min 0 lux 7,8 C 9,2 C
18.05.2004 03:15 9,1 C 10,2 C 90 % 1022 hPa 0,0 l/m 0,0 m/s (0 Bft) N-NW 335 0,00 min 0 lux 7,5 C 9,1 C
18.05.2004 03:20 9,0 C 10,2 C 91 % 1022 hPa 0,0 l/m 0,0 m/s (0 Bft) N-NW 335 0,00 min 0 lux 7,6 C 9,0 C
18.05.2004 03:25 9,2 C 10,2 C 91 % 1023 hPa 0,0 l/m 0,0 m/s (0 Bft) N-NW 335 0,00 min 0 lux 7,8 C 9,2 C
18.05.2004 03:30 9,0 C 10,2 C 91 % 1023 hPa 0,0 l/m 0,0 m/s (0 Bft) N-NW 335 0,00 min 0 lux 7,6 C 9,0 C
18.05.2004 03:35 8,8 C 10,1 C 92 % 1023 hPa 0,0 l/m 0,0 m/s (0 Bft) N-NW 335 0,00 min 0 lux 7,6 C 8,8 C
18.05.2004 03:40 8,8 C 10,0 C 92 % 1022 hPa 0,0 l/m 0,0 m/s (0 Bft) N-NW 335 0,00 min 0 lux 7,6 C 8,8 C
18.05.2004 03:45 8,8 C 10,0 C 92 % 1022 hPa 0,0 l/m 0,0 m/s (0 Bft) N-NW 335 0,00 min 0 lux 7,6 C 8,8 C
18.05.2004 03:50 9,0 C 9,8 C 91 % 1023 hPa 0,0 l/m 0,0 m/s (0 Bft) W-NW22.5 285 0,00 min 0 lux 7,6 C 9,0 C
18.05.2004 03:55 8,8 C 9,8 C 92 % 1023 hPa 0,0 l/m 0,0 m/s (0 Bft) W-NW 295 0,00 min 0 lux 7,6 C 8,8 C
18.05.2004 04:00 8,9 C 9,8 C 92 % 1023 hPa 0,0 l/m 0,0 m/s (0 Bft) W-NW 295 0,00 min 0 lux 7,7 C 8,9 C
18.05.2004 04:05 8,9 C 9,8 C 93 % 1023 hPa 0,0 l/m 0,0 m/s (0 Bft) W-NW 295 0,00 min 0 lux 7,8 C 8,9 C
18.05.2004 04:10 9,0 C 9,8 C 92 % 1023 hPa 0,0 l/m 0,0 m/s (0 Bft) W-NW 295 0,00 min 0 lux 7,8 C 9,0 C
18.05.2004 04:15 8,8 C 9,8 C 93 % 1023 hPa 0,0 l/m 0,0 m/s (0 Bft) W-NW 295 0,00 min 0 lux 7,7 C 8,8 C
18.05.2004 04:20 8,7 C 9,7 C 92 % 1023 hPa 0,0 l/m 0,0 m/s (0 Bft) W-NW 295 0,00 min 0 lux 7,5 C 8,7 C
18.05.2004 04:25 8,7 C 9,7 C 92 % 1023 hPa 0,0 l/m 0,0 m/s (0 Bft) NW22.5 305 0,00 min 0 lux 7,5 C 8,7 C
18.05.2004 04:30 8,6 C 9,7 C 92 % 1023 hPa 0,0 l/m 0,0 m/s (0 Bft) NW 310 0,00 min 0 lux 7,4 C 8,6 C
18.05.2004 04:35 8,6 C 9,6 C 93 % 1023 hPa 0,0 l/m 0,0 m/s (0 Bft) NW 310 0,00 min 0 lux 7,5 C 8,6 C
18.05.2004 04:40 8,5 C 9,6 C 93 % 1023 hPa 0,0 l/m 0,0 m/s (0 Bft) NW 310 0,00 min 0 lux 7,4 C 8,5 C
18.05.2004 04:45 8,4 C 9,5 C 92 % 1023 hPa 0,0 l/m 0,0 m/s (0 Bft) NW 310 0,00 min 0 lux 7,2 C 8,4 C
18.05.2004 04:50 8,3 C 9,5 C 92 % 1023 hPa 0,0 l/m 0,0 m/s (0 Bft) NW 310 0,00 min 0 lux 7,1 C 8,3 C
18.05.2004 04:55 8,2 C 9,4 C 92 % 1023 hPa 0,0 l/m 0,0 m/s (0 Bft) NW 310 0,00 min 0 lux 7,0 C 8,2 C
18.05.2004 05:00 8,1 C 9,3 C 93 % 1023 hPa 0,0 l/m 0,0 m/s (0 Bft) NW 310 0,00 min 0 lux 7,0 C 8,1 C
18.05.2004 05:05 7,9 C 9,2 C 93 % 1023 hPa 0,0 l/m 0,0 m/s (0 Bft) NW 310 0,00 min 0 lux 6,8 C 7,9 C
18.05.2004 05:10 8,0 C 9,1 C 92 % 1023 hPa 0,0 l/m 0,0 m/s (0 Bft) NW 310 0,00 min 0 lux 6,8 C 8,0 C
18.05.2004 05:15 8,0 C 9,0 C 92 % 1023 hPa 0,0 l/m 0,0 m/s (0 Bft) W-NW22.5 300 0,00 min 59 lux 6,8 C 8,0 C
18.05.2004 05:20 8,0 C 9,0 C 93 % 1023 hPa 0,0 l/m 0,0 m/s (0 Bft) W 260 0,00 min 107 lux 6,9 C 8,0 C
18.05.2004 05:25 8,0 C 9,0 C 93 % 1023 hPa 0,0 l/m 0,0 m/s (0 Bft) W-NW22.5 285 0,00 min 185 lux 6,9 C 8,0 C
18.05.2004 05:30 8,0 C 8,8 C 93 % 1023 hPa 0,0 l/m 0,0 m/s (0 Bft) W-NW 290 0,00 min 316 lux 6,9 C 8,0 C
18.05.2004 05:35 7,8 C 8,8 C 94 % 1023 hPa 0,0 l/m 0,0 m/s (0 Bft) W 280 0,00 min 401 lux 6,9 C 7,8 C
18.05.2004 05:40 7,9 C 8,8 C 94 % 1023 hPa 0,0 l/m 0,7 m/s (0 Bft) W22.5 275 0,00 min 500 lux 7,0 C 7,9 C
18.05.2004 05:45 7,8 C 8,8 C 94 % 1023 hPa 0,0 l/m 0,0 m/s (0 Bft) W22.5 265 0,00 min 889 lux 6,9 C 7,8 C
18.05.2004 05:50 7,9 C 8,8 C 94 % 1023 hPa 0,0 l/m 0,0 m/s (0 Bft) W 280 0,00 min 1,25 klux 7,0 C 7,9 C
18.05.2004 05:55 7,9 C 8,7 C 94 % 1023 hPa 0,0 l/m 0,0 m/s (0 Bft) W 280 0,00 min 1,66 klux 7,0 C 7,9 C
18.05.2004 06:00 7,8 C 8,7 C 94 % 1023 hPa 0,0 l/m 0,0 m/s (0 Bft) W 280 0,00 min 2,07 klux 6,9 C 7,8 C
18.05.2004 06:05 7,8 C 8,7 C 94 % 1023 hPa 0,0 l/m 0,0 m/s (0 Bft) W 280 0,00 min 2,94 klux 6,9 C 7,8 C
18.05.2004 06:10 7,8 C 8,6 C 94 % 1023 hPa 0,0 l/m 0,0 m/s (0 Bft) W 280 0,00 min 3,82 klux 6,9 C 7,8 C
18.05.2004 06:15 8,0 C 8,6 C 93 % 1023 hPa 0,0 l/m 0,0 m/s (0 Bft) W 280 0,00 min 4,67 klux 6,9 C 8,0 C
18.05.2004 06:20 8,1 C 8,6 C 94 % 1023 hPa 0,0 l/m 0,1 m/s (0 Bft) W22.5 270 0,00 min 6,67 klux 7,2 C 8,1 C
18.05.2004 06:25 8,4 C 8,6 C 94 % 1023 hPa 0,0 l/m 0,1 m/s (0 Bft) W-NW22.5 295 0,00 min 8,48 klux 7,5 C 8,4 C
18.05.2004 06:30 8,9 C 8,6 C 94 % 1023 hPa 0,0 l/m 0,0 m/s (0 Bft) W-NW 290 0,00 min 9,2 klux 8,0 C 8,9 C
18.05.2004 06:35 9,1 C 8,7 C 93 % 1023 hPa 0,0 l/m 0,0 m/s (0 Bft) W-NW 290 0,00 min 10,1 klux 8,0 C 9,1 C
18.05.2004 06:40 9,7 C 8,7 C 88 % 1023 hPa 0,0 l/m 0,0 m/s (0 Bft) W-NW 290 5,00 min 11,7 klux 7,8 C 9,7 C
18.05.2004 06:45 10,1 C 8,7 C 85 % 1023 hPa 0,0 l/m 0,0 m/s (0 Bft) W-NW 290 5,00 min 13,7 klux 7,7 C 10,1 C
18.05.2004 06:50 10,9 C 8,7 C 80 % 1023 hPa 0,0 l/m 0,0 m/s (0 Bft) W-NW 290 5,00 min 15,1 klux 7,6 C 10,9 C
18.05.2004 06:55 11,6 C 8,8 C 76 % 1023 hPa 0,0 l/m 0,0 m/s (0 Bft) W-NW 290 5,00 min 15,7 klux 7,5 C 11,6 C
18.05.2004 07:00 11,8 C 8,9 C 74 % 1023 hPa 0,0 l/m 0,0 m/s (0 Bft) W-NW 290 5,00 min 15,7 klux 7,3 C 11,8 C
18.05.2004 07:05 11,7 C 8,9 C 72 % 1023 hPa 0,0 l/m 0,0 m/s (0 Bft) W-NW 290 5,00 min 16,8 klux 6,8 C 11,7 C
18.05.2004 07:10 12,1 C 9,0 C 71 % 1023 hPa 0,0 l/m 0,0 m/s (0 Bft) W 275 5,00 min 19,1 klux 7,0 C 12,1 C
18.05.2004 07:15 12,0 C 9,1 C 70 % 1023 hPa 0,0 l/m 0,0 m/s (0 Bft) W 270 5,00 min 19,8 klux 6,7 C 12,0 C
18.05.2004 07:20 12,0 C 9,2 C 70 % 1023 hPa 0,0 l/m 0,0 m/s (0 Bft) W-SW22.5 245 0,00 min 18,1 klux 6,7 C 12,0 C
18.05.2004 07:25 12,0 C 9,3 C 72 % 1023 hPa 0,0 l/m 0,1 m/s (0 Bft) W22.5 275 0,00 min 19,5 klux 7,1 C 12,0 C
18.05.2004 07:30 12,1 C 9,5 C 72 % 1023 hPa 0,0 l/m 1,3 m/s (1 Bft) W22.5 275 0,00 min 21,6 klux 7,2 C 12,1 C
18.05.2004 07:35 12,0 C 9,6 C 71 % 1023 hPa 0,0 l/m 1,3 m/s (1 Bft) W 260 5,00 min 23,9 klux 6,9 C 12,0 C
18.05.2004 07:40 12,2 C 9,7 C 72 % 1023 hPa 0,0 l/m 1,7 m/s (1 Bft) W22.5 265 5,00 min 27,3 klux 7,3 C 12,2 C
18.05.2004 07:45 13,0 C 9,9 C 70 % 1023 hPa 0,0 l/m 1,3 m/s (1 Bft) W-SW 255 5,00 min 28,8 klux 7,7 C 13,0 C
18.05.2004 07:50 13,0 C 10,1 C 69 % 1023 hPa 0,0 l/m 1,4 m/s (1 Bft) W-SW22.5 250 5,00 min 27,4 klux 7,4 C 13,0 C
18.05.2004 07:55 13,0 C 10,2 C 69 % 1023 hPa 0,0 l/m 1,3 m/s (1 Bft) W-SW22.5 240 5,00 min 32,1 klux 7,4 C 13,0 C
18.05.2004 08:00 13,5 C 10,4 C 68 % 1023 hPa 0,0 l/m 0,2 m/s (0 Bft) W-SW 255 5,00 min 31,4 klux 7,7 C 13,5 C
18.05.2004 08:05 13,4 C 10,6 C 68 % 1023 hPa 0,0 l/m 0,8 m/s (0 Bft) W-SW45 250 5,00 min 34,2 klux 7,6 C 13,4 C
18.05.2004 08:10 14,1 C 10,7 C 66 % 1023 hPa 0,0 l/m 1,6 m/s (1 Bft) W-SW22.5 245 5,00 min 35,7 klux 7,8 C 14,1 C
18.05.2004 08:15 14,4 C 10,9 C 65 % 1023 hPa 0,0 l/m 1,3 m/s (1 Bft) W22.5 260 5,00 min 38,2 klux 7,9 C 14,4 C
18.05.2004 08:20 14,2 C 11,1 C 62 % 1023 hPa 0,0 l/m 1,4 m/s (1 Bft) W-SW22.5 250 5,00 min 39,0 klux 7,0 C 14,2 C
18.05.2004 08:25 13,9 C 11,3 C 65 % 1023 hPa 0,0 l/m 1,4 m/s (1 Bft) W-SW22.5 250 5,00 min 36,4 klux 7,4 C 13,9 C
18.05.2004 08:30 13,8 C 11,4 C 68 % 1023 hPa 0,0 l/m 1,5 m/s (1 Bft) W-SW22.5 255 5,00 min 46,0 klux 8,0 C 13,8 C
18.05.2004 08:35 13,6 C 11,7 C 71 % 1023 hPa 0,0 l/m 1,4 m/s (1 Bft) W-SW45 240 5,00 min 47,5 klux 8,4 C 13,6 C
18.05.2004 08:40 14,0 C 11,9 C 71 % 1023 hPa 0,0 l/m 1,1 m/s (0 Bft) W-SW45 250 5,00 min 48,3 klux 8,8 C 14,0 C
18.05.2004 08:45 14,4 C 12,0 C 71 % 1023 hPa 0,0 l/m 0,8 m/s (0 Bft) S-SW45 195 5,00 min 49,5 klux 9,2 C 14,4 C
18.05.2004 08:50 14,5 C 12,3 C 69 % 1023 hPa 0,0 l/m 1,3 m/s (1 Bft) S-SW45 205 5,00 min 50,6 klux 8,9 C 14,5 C
18.05.2004 08:55 14,5 C 12,6 C 69 % 1023 hPa 0,0 l/m 1,3 m/s (1 Bft) SW22.5 220 5,00 min 51,9 klux 8,9 C 14,5 C
18.05.2004 09:00 14,8 C 12,7 C 69 % 1023 hPa 0,0 l/m 1,1 m/s (1 Bft) SW22.5 220 5,00 min 52,1 klux 9,2 C 14,8 C
18.05.2004 09:05 15,0 C 13,0 C 68 % 1023 hPa 0,0 l/m 1,6 m/s (1 Bft) SW22.5 230 5,00 min 52,7 klux 9,1 C 15,0 C
18.05.2004 09:10 15,1 C 13,3 C 68 % 1023 hPa 0,0 l/m 1,1 m/s (0 Bft) SW22.5 230 5,00 min 53,8 klux 9,2 C 15,1 C
18.05.2004 09:15 15,8 C 13,5 C 68 % 1023 hPa 0,0 l/m 0,0 m/s (0 Bft) S-SW22.5 205 5,00 min 54,9 klux 9,9 C 15,8 C
18.05.2004 09:20 16,2 C 13,6 C 66 % 1023 hPa 0,0 l/m 0,1 m/s (0 Bft) SW22.5 215 5,00 min 58,2 klux 9,8 C 16,2 C
18.05.2004 09:25 16,2 C 13,9 C 65 % 1023 hPa 0,0 l/m 0,1 m/s (0 Bft) SW22.5 215 5,00 min 59,1 klux 9,6 C 16,2 C
18.05.2004 09:30 16,4 C 14,2 C 65 % 1023 hPa 0,0 l/m 1,4 m/s (1 Bft) SW22.5 220 5,00 min 59,6 klux 9,8 C 16,4 C
18.05.2004 09:35 16,6 C 14,3 C 64 % 1023 hPa 0,0 l/m 0,5 m/s (0 Bft) SW45 235 5,00 min 61,2 klux 9,8 C 16,6 C
18.05.2004 09:40 17,2 C 14,6 C 63 % 1023 hPa 0,0 l/m 2,1 m/s (1 Bft) W-SW22.5 250 5,00 min 64,7 klux 10,1 C 16,6 C
18.05.2004 09:45 17,5 C 15,0 C 62 % 1023 hPa 0,0 l/m 2,5 m/s (1 Bft) SW45 215 5,00 min 65,3 klux 10,1 C 16,3 C
18.05.2004 09:50 17,6 C 15,5 C 60 % 1023 hPa 0,0 l/m 2,1 m/s (1 Bft) W-SW45 245 5,00 min 66,1 klux 9,7 C 17,1 C
18.05.2004 09:55 17,9 C 15,8 C 60 % 1023 hPa 0,0 l/m 2,8 m/s (1 Bft) SW67.5 230 5,00 min 68,8 klux 10,0 C 16,4 C
18.05.2004 10:00 18,2 C 16,7 C 58 % 1023 hPa 0,0 l/m 2,4 m/s (1 Bft) SW45 225 5,00 min 71,1 klux 9,8 C 17,2 C
18.05.2004 10:05 19,4 C 17,7 C 56 % 1023 hPa 0,0 l/m 2,7 m/s (1 Bft) SW67.5 215 5,00 min 71,5 klux 10,4 C 18,0 C
18.05.2004 10:10 19,4 C 18,3 C 52 % 1023 hPa 0,0 l/m 1,6 m/s (1 Bft) S-SW45 195 5,00 min 78,5 klux 9,3 C 19,4 C
18.05.2004 10:15 19,4 C 18,8 C 52 % 1023 hPa 0,0 l/m 2,9 m/s (1 Bft) SW22.5 230 5,00 min 79,0 klux 9,3 C 17,9 C
18.05.2004 10:20 19,6 C 19,9 C 50 % 1023 hPa 0,0 l/m 3,2 m/s (1 Bft) S45 185 5,00 min 60,0 klux 8,9 C 17,7 C
18.05.2004 10:25 19,6 C 20,0 C 51 % 1023 hPa 0,0 l/m 3,5 m/s (1 Bft) W67.5 260 0,00 min 39,6 klux 9,2 C 17,4 C
18.05.2004 10:30 19,6 C 20,2 C 49 % 1023 hPa 0,0 l/m 1,9 m/s (1 Bft) W45 270 5,00 min 79,3 klux 8,6 C 19,4 C
18.05.2004 10:35 19,9 C 20,8 C 49 % 1023 hPa 0,0 l/m 2,1 m/s (1 Bft) W67.5 260 5,00 min 79,4 klux 8,9 C 19,4 C
18.05.2004 10:40 19,4 C 20,8 C 47 % 1023 hPa 0,0 l/m 1,3 m/s (1 Bft) W22.5 260 0,00 min 35,7 klux 7,8 C 19,4 C
18.05.2004 10:45 19,5 C 20,8 C 52 % 1023 hPa 0,0 l/m 0,0 m/s (0 Bft) W-NW22.5 295 5,00 min 70,2 klux 9,4 C 19,5 C
18.05.2004 10:50 19,7 C 21,1 C 50 % 1023 hPa 0,0 l/m 0,8 m/s (0 Bft) SW67.5 230 5,00 min 70,2 klux 9,0 C 19,7 C
18.05.2004 10:55 20,8 C 22,1 C 48 % 1023 hPa 0,0 l/m 1,8 m/s (1 Bft) W67.5 265 5,00 min 85,9 klux 9,4 C 20,7 C
18.05.2004 11:00 20,7 C 22,2 C 47 % 1023 hPa 0,0 l/m 3,0 m/s (1 Bft) SW67.5 220 0,00 min 39,6 klux 9,0 C 19,1 C
18.05.2004 11:05 20,3 C 21,8 C 47 % 1023 hPa 0,0 l/m 3,7 m/s (1 Bft) SW22.5 215 0,00 min 34,3 klux 8,6 C 18,1 C
18.05.2004 11:10 19,7 C 21,5 C 47 % 1023 hPa 0,0 l/m 3,9 m/s (1 Bft) W45 275 0,00 min 36,9 klux 8,1 C 17,1 C
18.05.2004 11:15 19,5 C 21,5 C 48 % 1023 hPa 0,0 l/m 3,6 m/s (1 Bft) W22.5 270 5,00 min 80,6 klux 8,2 C 17,1 C
18.05.2004 11:20 20,0 C 21,7 C 47 % 1023 hPa 0,0 l/m 4,5 m/s (1 Bft) W45 275 5,00 min 84,6 klux 8,3 C 17,0 C
18.05.2004 11:25 20,1 C 22,4 C 45 % 1023 hPa 0,0 l/m 4,2 m/s (1 Bft) W-NW45 285 5,00 min 89,8 klux 7,8 C 17,3 C
18.05.2004 11:30 20,6 C 23,3 C 44 % 1023 hPa 0,0 l/m 3,8 m/s (1 Bft) W22.5 270 5,00 min 95,7 klux 7,9 C 18,3 C
18.05.2004 11:35 21,0 C 23,6 C 41 % 1023 hPa 0,0 l/m 2,8 m/s (1 Bft) W-NW67.5 300 5,00 min 94,0 klux 7,2 C 19,7 C
18.05.2004 11:40 20,8 C 23,6 C 44 % 1023 hPa 0,0 l/m 2,4 m/s (1 Bft) W-NW67.5 285 0,00 min 40,3 klux 8,1 C 20,0 C
18.05.2004 11:45 20,1 C 23,2 C 43 % 1023 hPa 0,0 l/m 5,6 m/s (1 Bft) W67.5 280 0,00 min 55,7 klux 7,1 C 16,3 C
18.05.2004 11:50 20,5 C 23,4 C 42 % 1023 hPa 0,0 l/m 4,4 m/s (1 Bft) W45 260 5,00 min 94,5 klux 7,1 C 17,6 C
18.05.2004 11:55 20,7 C 23,8 C 41 % 1023 hPa 0,0 l/m 5,1 m/s (1 Bft) W45 275 5,00 min 90,1 klux 7,0 C 17,4 C
18.05.2004 12:00 20,3 C 23,7 C 42 % 1023 hPa 0,0 l/m 5,2 m/s (1 Bft) W45 265 0,00 min 42,6 klux 7,0 C 16,9 C
18.05.2004 12:05 20,4 C 23,6 C 41 % 1023 hPa 0,0 l/m 2,0 m/s (1 Bft) W-SW22.5 250 5,00 min 89,0 klux 6,7 C 20,1 C
18.05.2004 12:10 20,9 C 23,8 C 42 % 1023 hPa 0,0 l/m 3,8 m/s (1 Bft) W-SW45 255 5,00 min 99,0 klux 7,5 C 18,7 C
18.05.2004 12:15 21,5 C 24,5 C 38 % 1023 hPa 0,0 l/m 3,2 m/s (1 Bft) SW45 230 5,00 min 101 klux 6,6 C 19,9 C
18.05.2004 12:20 21,3 C 24,4 C 41 % 1023 hPa 0,0 l/m 4,9 m/s (1 Bft) W67.5 265 0,00 min 39,0 klux 7,5 C 18,3 C
18.05.2004 12:25 20,6 C 24,0 C 43 % 1023 hPa 0,0 l/m 4,9 m/s (1 Bft) NW45 305 0,00 min 28,7 klux 7,6 C 17,4 C
18.05.2004 12:30 20,1 C 23,4 C 44 % 1023 hPa 0,0 l/m 0,0 m/s (0 Bft) NW67.5 325 0,00 min 43,1 klux 7,5 C 20,1 C
18.05.2004 12:35 20,9 C 23,5 C 41 % 1023 hPa 0,0 l/m 3,0 m/s (1 Bft) W45 280 5,00 min 86,5 klux 7,2 C 19,4 C
18.05.2004 12:40 21,5 C 23,9 C 36 % 1023 hPa 0,0 l/m 3,3 m/s (1 Bft) W-NW45 285 5,00 min 109 klux 5,8 C 19,8 C
18.05.2004 12:45 21,5 C 24,5 C 36 % 1023 hPa 0,0 l/m 6,1 m/s (2 Bft) W-SW67.5 245 5,00 min 105 klux 5,8 C 17,9 C
18.05.2004 12:50 21,8 C 24,2 C 37 % 1023 hPa 0,0 l/m 4,3 m/s (1 Bft) W45 265 0,00 min 49,4 klux 6,5 C 19,3 C
18.05.2004 12:55 21,6 C 23,8 C 38 % 1023 hPa 0,0 l/m 5,1 m/s (1 Bft) W45 270 0,00 min 37,3 klux 6,7 C 18,6 C
18.05.2004 13:00 21,1 C 23,6 C 39 % 1023 hPa 0,0 l/m 4,9 m/s (1 Bft) W45 260 0,00 min 37,3 klux 6,6 C 18,0 C
18.05.2004 13:05 20,8 C 23,0 C 44 % 1023 hPa 0,0 l/m 3,4 m/s (1 Bft) NW45 305 0,00 min 39,6 klux 8,1 C 18,9 C
18.05.2004 13:10 20,4 C 22,6 C 45 % 1023 hPa 0,0 l/m 3,0 m/s (1 Bft) NW67.5 305 0,00 min 38,6 klux 8,1 C 18,8 C
18.05.2004 13:15 20,5 C 22,6 C 47 % 1023 hPa 0,0 l/m 3,0 m/s (1 Bft) NW67.5 305 5,00 min 71,8 klux 8,8 C 18,9 C
18.05.2004 13:20 20,8 C 23,0 C 45 % 1023 hPa 0,0 l/m 2,7 m/s (1 Bft) W45 260 5,00 min 88,7 klux 8,4 C 19,6 C
18.05.2004 13:25 21,3 C 23,9 C 41 % 1023 hPa 0,0 l/m 2,7 m/s (1 Bft) W45 260 5,00 min 92,3 klux 7,5 C 20,2 C
18.05.2004 13:30 22,2 C 24,9 C 41 % 1023 hPa 0,0 l/m 4,4 m/s (1 Bft) W-SW67.5 245 5,00 min 97,6 klux 8,3 C 19,7 C
18.05.2004 13:35 22,0 C 24,9 C 39 % 1023 hPa 0,0 l/m 3,8 m/s (1 Bft) SW45 225 5,00 min 94,3 klux 7,4 C 20,0 C
18.05.2004 13:40 22,3 C 25,8 C 40 % 1023 hPa 0,0 l/m 3,3 m/s (1 Bft) W-SW67.5 255 5,00 min 94,2 klux 8,0 C 20,7 C
18.05.2004 13:45 22,5 C 25,9 C 38 % 1022 hPa 0,0 l/m 3,0 m/s (1 Bft) W45 275 5,00 min 68,9 klux 7,5 C 21,2 C
18.05.2004 13:50 22,4 C 26,2 C 36 % 1022 hPa 0,0 l/m 2,8 m/s (1 Bft) W-SW45 245 5,00 min 69,7 klux 6,6 C 21,3 C
18.05.2004 13:55 22,4 C 26,3 C 40 % 1022 hPa 0,0 l/m 3,8 m/s (1 Bft) W67.5 275 5,00 min 98,2 klux 8,1 C 20,5 C
18.05.2004 14:00 21,6 C 25,7 C 41 % 1022 hPa 0,0 l/m 3,7 m/s (1 Bft) W45 270 0,00 min 36,2 klux 7,8 C 19,6 C
18.05.2004 14:05 21,2 C 25,5 C 40 % 1022 hPa 0,0 l/m 3,8 m/s (1 Bft) W45 275 5,00 min 79,3 klux 7,1 C 19,0 C
18.05.2004 14:10 21,6 C 25,9 C 38 % 1022 hPa 0,0 l/m 4,1 m/s (1 Bft) W-SW22.5 250 5,00 min 97,6 klux 6,7 C 19,3 C
18.05.2004 14:15 22,4 C 26,8 C 38 % 1022 hPa 0,0 l/m 4,1 m/s (1 Bft) W-SW45 245 5,00 min 98,9 klux 7,4 C 20,2 C
18.05.2004 14:20 22,9 C 27,6 C 38 % 1022 hPa 0,0 l/m 2,2 m/s (1 Bft) W-SW22.5 245 5,00 min 90,9 klux 7,8 C 22,4 C
18.05.2004 14:25 22,7 C 27,8 C 36 % 1022 hPa 0,0 l/m 3,0 m/s (1 Bft) SW45 230 0,00 min 59,0 klux 6,9 C 21,4 C
18.05.2004 14:30 23,1 C 27,5 C 37 % 1022 hPa 0,0 l/m 5,2 m/s (1 Bft) SW67.5 235 5,00 min 95,8 klux 7,6 C 20,4 C
18.05.2004 14:35 23,1 C 27,5 C 35 % 1022 hPa 0,0 l/m 6,3 m/s (2 Bft) W45 280 5,00 min 93,8 klux 6,8 C 19,9 C
18.05.2004 14:40 23,3 C 27,5 C 36 % 1022 hPa 0,0 l/m 5,3 m/s (1 Bft) W-NW45 295 5,00 min 89,9 klux 7,4 C 20,6 C
18.05.2004 14:45 22,8 C 27,5 C 34 % 1022 hPa 0,0 l/m 5,3 m/s (1 Bft) W45 275 5,00 min 82,8 klux 6,1 C 20,0 C
18.05.2004 14:50 23,2 C 27,3 C 35 % 1022 hPa 0,0 l/m 4,3 m/s (1 Bft) W45 270 5,00 min 88,0 klux 6,9 C 21,1 C
18.05.2004 14:55 22,8 C 26,4 C 35 % 1022 hPa 0,0 l/m 5,4 m/s (1 Bft) W-NW45 285 0,00 min 36,1 klux 6,5 C 19,9 C
18.05.2004 15:00 21,9 C 25,9 C 37 % 1022 hPa 0,0 l/m 6,7 m/s (2 Bft) W-NW45 285 0,00 min 43,7 klux 6,5 C 18,1 C
18.05.2004 15:05 22,1 C 25,7 C 39 % 1022 hPa 0,0 l/m 5,8 m/s (2 Bft) W67.5 270 5,00 min 85,8 klux 7,5 C 18,8 C
18.05.2004 15:10 22,4 C 26,4 C 39 % 1022 hPa 0,0 l/m 5,4 m/s (1 Bft) W45 280 5,00 min 84,3 klux 7,8 C 19,4 C
18.05.2004 15:15 22,6 C 26,5 C 38 % 1022 hPa 0,0 l/m 6,9 m/s (2 Bft) W-NW67.5 295 5,00 min 84,3 klux 7,6 C 18,9 C
18.05.2004 15:20 22,9 C 27,0 C 39 % 1022 hPa 0,0 l/m 5,5 m/s (1 Bft) W45 280 5,00 min 86,6 klux 8,2 C 20,0 C
18.05.2004 15:25 22,9 C 27,2 C 35 % 1022 hPa 0,0 l/m 6,1 m/s (2 Bft) W67.5 275 5,00 min 84,1 klux 6,6 C 19,7 C
18.05.2004 15:30 23,0 C 27,7 C 35 % 1022 hPa 0,0 l/m 3,3 m/s (1 Bft) W22.5 265 5,00 min 82,5 klux 6,7 C 21,6 C
18.05.2004 15:35 23,4 C 28,3 C 36 % 1022 hPa 0,0 l/m 4,0 m/s (1 Bft) NW67.5 320 5,00 min 84,6 klux 7,5 C 21,5 C
18.05.2004 15:40 22,9 C 27,7 C 36 % 1022 hPa 0,0 l/m 5,1 m/s (1 Bft) W45 280 0,00 min 39,0 klux 7,0 C 20,2 C
18.05.2004 15:45 22,7 C 26,7 C 36 % 1022 hPa 0,0 l/m 3,9 m/s (1 Bft) W45 280 0,00 min 38,8 klux 6,9 C 20,7 C
18.05.2004 15:50 22,2 C 26,2 C 38 % 1022 hPa 0,0 l/m 5,0 m/s (1 Bft) W-NW45 285 5,00 min 63,4 klux 7,2 C 19,4 C
18.05.2004 15:55 22,5 C 26,2 C 38 % 1022 hPa 0,0 l/m 4,6 m/s (1 Bft) NW67.5 305 0,00 min 54,2 klux 7,5 C 20,0 C
18.05.2004 16:00 22,3 C 25,8 C 40 % 1022 hPa 0,0 l/m 6,9 m/s (2 Bft) NW45 305 0,00 min 48,4 klux 8,0 C 18,5 C
18.05.2004 16:05 22,3 C 25,9 C 39 % 1022 hPa 0,0 l/m 4,8 m/s (1 Bft) W22.5 265 5,00 min 63,2 klux 7,7 C 19,6 C
18.05.2004 16:10 22,4 C 26,7 C 36 % 1022 hPa 0,0 l/m 2,6 m/s (1 Bft) W22.5 270 5,00 min 68,5 klux 6,6 C 21,5 C
18.05.2004 16:15 22,4 C 27,1 C 36 % 1022 hPa 0,0 l/m 6,6 m/s (2 Bft) W45 260 5,00 min 67,8 klux 6,6 C 18,8 C
18.05.2004 16:20 22,4 C 27,4 C 36 % 1022 hPa 0,0 l/m 5,6 m/s (1 Bft) W45 260 5,00 min 78,1 klux 6,6 C 19,3 C
18.05.2004 16:25 22,9 C 27,7 C 37 % 1022 hPa 0,0 l/m 6,1 m/s (2 Bft) W-SW45 250 5,00 min 82,7 klux 7,4 C 19,7 C
18.05.2004 16:30 23,2 C 27,4 C 39 % 1022 hPa 0,0 l/m 4,8 m/s (1 Bft) W-SW22.5 255 5,00 min 56,7 klux 8,5 C 20,7 C
18.05.2004 16:35 23,2 C 26,7 C 37 % 1022 hPa 0,0 l/m 1,9 m/s (1 Bft) NW 320 0,00 min 31,7 klux 7,7 C 23,1 C
18.05.2004 16:40 22,0 C 26,2 C 37 % 1022 hPa 0,0 l/m 7,3 m/s (2 Bft) W-NW45 295 0,00 min 22,5 klux 6,6 C 17,9 C
18.05.2004 16:50 22,1 C 25,3 C 38 % 1022 hPa 0,0 l/m 5,7 m/s (1 Bft) W-NW45 300 0,00 min 40,2 klux 7,1 C 18,8 C
18.05.2004 16:55 22,0 C 24,8 C 39 % 1022 hPa 0,0 l/m 5,9 m/s (2 Bft) W-NW45 300 0,00 min 24,9 klux 7,4 C 18,6 C
18.05.2004 17:00 21,6 C 24,6 C 39 % 1022 hPa 0,0 l/m 4,8 m/s (1 Bft) W67.5 280 0,00 min 26,3 klux 7,0 C 18,7 C
18.05.2004 17:05 22,0 C 24,2 C 38 % 1022 hPa 0,0 l/m 3,6 m/s (1 Bft) W45 280 0,00 min 32,3 klux 7,0 C 20,1 C
18.05.2004 17:10 22,4 C 24,4 C 39 % 1022 hPa 0,0 l/m 3,7 m/s (1 Bft) W-NW67.5 295 5,00 min 66,4 klux 7,8 C 20,5 C
18.05.2004 17:15 22,5 C 25,5 C 37 % 1022 hPa 0,0 l/m 3,4 m/s (1 Bft) W22.5 265 5,00 min 68,0 klux 7,1 C 20,9 C
18.05.2004 17:20 22,2 C 25,5 C 36 % 1022 hPa 0,0 l/m 4,8 m/s (1 Bft) W67.5 275 0,00 min 43,2 klux 6,4 C 19,5 C
18.05.2004 17:25 21,8 C 25,1 C 39 % 1022 hPa 0,0 l/m 4,8 m/s (1 Bft) W67.5 280 0,00 min 24,2 klux 7,2 C 19,0 C
18.05.2004 17:30 21,7 C 24,3 C 39 % 1022 hPa 0,0 l/m 5,6 m/s (1 Bft) W45 280 0,00 min 23,3 klux 7,1 C 18,4 C
18.05.2004 17:35 22,0 C 24,2 C 39 % 1022 hPa 0,0 l/m 5,9 m/s (2 Bft) W-NW45 290 5,00 min 55,7 klux 7,4 C 18,6 C
18.05.2004 17:40 22,3 C 24,5 C 37 % 1022 hPa 0,0 l/m 3,5 m/s (1 Bft) W-NW45 285 5,00 min 48,3 klux 6,9 C 20,5 C
18.05.2004 17:45 22,0 C 25,0 C 36 % 1022 hPa 0,0 l/m 5,7 m/s (1 Bft) W45 280 5,00 min 52,6 klux 6,2 C 18,7 C
18.05.2004 17:50 21,8 C 24,9 C 38 % 1022 hPa 0,0 l/m 5,4 m/s (1 Bft) W-NW45 285 0,00 min 26,9 klux 6,8 C 18,6 C
18.05.2004 17:55 22,1 C 25,1 C 36 % 1022 hPa 0,0 l/m 5,1 m/s (1 Bft) W-NW67.5 285 5,00 min 45,8 klux 6,3 C 19,2 C
18.05.2004 18:00 22,2 C 25,4 C 36 % 1022 hPa 0,0 l/m 6,7 m/s (2 Bft) W-NW45 295 5,00 min 44,8 klux 6,4 C 18,5 C
18.05.2004 18:05 22,0 C 25,6 C 38 % 1022 hPa 0,0 l/m 3,8 m/s (1 Bft) W-NW45 300 5,00 min 47,7 klux 7,0 C 19,9 C
18.05.2004 18:10 21,5 C 25,1 C 39 % 1022 hPa 0,0 l/m 4,3 m/s (1 Bft) W-NW45 300 0,00 min 20,9 klux 7,0 C 18,9 C
18.05.2004 18:15 21,3 C 24,4 C 39 % 1022 hPa 0,0 l/m 4,3 m/s (1 Bft) W-NW22.5 285 0,00 min 19,2 klux 6,8 C 18,7 C
18.05.2004 18:20 21,2 C 24,0 C 40 % 1022 hPa 0,0 l/m 3,7 m/s (1 Bft) W22.5 280 0,00 min 17,4 klux 7,1 C 19,1 C
18.05.2004 18:25 21,1 C 23,4 C 40 % 1022 hPa 0,0 l/m 5,8 m/s (2 Bft) NW45 305 0,00 min 17,5 klux 7,0 C 17,5 C
18.05.2004 18:30 21,1 C 23,1 C 40 % 1022 hPa 0,0 l/m 3,4 m/s (1 Bft) W-NW22.5 295 5,00 min 37,2 klux 7,0 C 19,3 C
18.05.2004 18:35 21,5 C 23,7 C 39 % 1022 hPa 0,0 l/m 4,2 m/s (1 Bft) W-NW45 295 5,00 min 41,1 klux 7,0 C 19,0 C
18.05.2004 18:40 21,4 C 23,7 C 39 % 1022 hPa 0,0 l/m 2,3 m/s (1 Bft) W-SW45 255 5,00 min 36,6 klux 6,9 C 20,8 C
18.05.2004 18:45 21,6 C 24,2 C 38 % 1022 hPa 0,0 l/m 2,1 m/s (1 Bft) W45 270 5,00 min 37,2 klux 6,7 C 21,2 C
18.05.2004 18:50 22,6 C 24,6 C 36 % 1022 hPa 0,0 l/m 3,0 m/s (1 Bft) W22.5 265 5,00 min 37,5 klux 6,8 C 21,3 C
18.05.2004 18:55 22,5 C 24,7 C 35 % 1022 hPa 0,0 l/m 3,9 m/s (1 Bft) W45 275 5,00 min 33,6 klux 6,3 C 20,5 C
18.05.2004 19:00 23,1 C 25,0 C 36 % 1022 hPa 0,0 l/m 2,9 m/s (1 Bft) W45 275 5,00 min 33,1 klux 7,2 C 21,9 C
18.05.2004 19:05 23,1 C 25,1 C 35 % 1022 hPa 0,0 l/m 2,3 m/s (1 Bft) W45 280 5,00 min 25,4 klux 6,8 C 22,5 C
18.05.2004 19:10 23,2 C 25,1 C 35 % 1022 hPa 0,0 l/m 3,9 m/s (1 Bft) W-NW67.5 300 5,00 min 27,6 klux 6,9 C 21,3 C
18.05.2004 19:15 23,1 C 25,0 C 36 % 1022 hPa 0,0 l/m 3,3 m/s (1 Bft) W-NW67.5 290 5,00 min 25,4 klux 7,2 C 21,6 C
18.05.2004 19:20 23,2 C 25,0 C 35 % 1022 hPa 0,0 l/m 2,1 m/s (1 Bft) W22.5 270 5,00 min 24,8 klux 6,9 C 22,8 C
18.05.2004 19:25 23,3 C 25,0 C 36 % 1022 hPa 0,0 l/m 2,2 m/s (1 Bft) W22.5 280 5,00 min 23,5 klux 7,4 C 22,9 C
18.05.2004 19:30 23,3 C 25,0 C 35 % 1022 hPa 0,0 l/m 2,2 m/s (1 Bft) W22.5 260 5,00 min 21,3 klux 7,0 C 22,9 C
18.05.2004 19:35 22,8 C 24,6 C 37 % 1022 hPa 0,0 l/m 3,9 m/s (1 Bft) W-NW45 295 5,00 min 18,9 klux 7,3 C 20,8 C
18.05.2004 19:40 22,3 C 24,3 C 37 % 1022 hPa 0,0 l/m 3,8 m/s (1 Bft) W22.5 280 5,00 min 19,2 klux 6,9 C 20,3 C
18.05.2004 19:45 21,3 C 23,9 C 41 % 1022 hPa 0,0 l/m 5,9 m/s (2 Bft) NW67.5 310 0,00 min 14,5 klux 7,5 C 17,7 C
18.05.2004 19:50 21,0 C 23,3 C 41 % 1022 hPa 0,0 l/m 3,4 m/s (1 Bft) W-NW45 290 0,00 min 10,9 klux 7,2 C 19,2 C
18.05.2004 19:55 21,5 C 23,0 C 41 % 1022 hPa 0,0 l/m 2,7 m/s (1 Bft) W-NW22.5 295 0,00 min 11,8 klux 7,7 C 20,4 C
18.05.2004 20:00 21,3 C 22,8 C 41 % 1022 hPa 0,0 l/m 2,8 m/s (1 Bft) W-NW22.5 285 0,00 min 11,1 klux 7,5 C 20,0 C
18.05.2004 20:05 21,0 C 22,5 C 42 % 1022 hPa 0,0 l/m 1,5 m/s (1 Bft) W45 275 0,00 min 10,3 klux 7,6 C 21,0 C
18.05.2004 20:10 20,5 C 22,0 C 44 % 1022 hPa 0,0 l/m 2,8 m/s (1 Bft) W-NW22.5 285 0,00 min 8,71 klux 7,8 C 19,2 C
18.05.2004 20:15 19,8 C 21,5 C 46 % 1022 hPa 0,0 l/m 2,7 m/s (1 Bft) W-NW45 295 0,00 min 7,49 klux 7,8 C 18,6 C
18.05.2004 20:20 19,3 C 21,3 C 47 % 1022 hPa 0,0 l/m 2,1 m/s (1 Bft) W-NW45 285 0,00 min 6,51 klux 7,7 C 18,7 C
18.05.2004 20:25 19,1 C 20,9 C 48 % 1022 hPa 0,0 l/m 1,6 m/s (1 Bft) W-NW22.5 290 0,00 min 5,75 klux 7,8 C 19,1 C
18.05.2004 20:30 18,6 C 20,5 C 50 % 1022 hPa 0,0 l/m 1,4 m/s (1 Bft) W-NW22.5 290 0,00 min 4,86 klux 8,0 C 18,6 C
18.05.2004 20:35 18,3 C 20,4 C 51 % 1022 hPa 0,0 l/m 0,9 m/s (0 Bft) W-NW22.5 290 0,00 min 4,35 klux 8,0 C 18,3 C
18.05.2004 20:40 18,2 C 20,0 C 51 % 1022 hPa 0,0 l/m 0,7 m/s (0 Bft) W-NW22.5 290 0,00 min 3,58 klux 7,9 C 18,2 C
18.05.2004 20:45 17,9 C 19,7 C 53 % 1022 hPa 0,0 l/m 1,4 m/s (1 Bft) W-NW22.5 290 0,00 min 2,90 klux 8,2 C 17,9 C
18.05.2004 20:50 17,8 C 19,4 C 54 % 1022 hPa 0,0 l/m 1,4 m/s (1 Bft) NW22.5 305 0,00 min 2,21 klux 8,4 C 17,8 C
18.05.2004 20:55 17,7 C 19,3 C 55 % 1022 hPa 0,0 l/m 0,5 m/s (0 Bft) W-NW22.5 290 0,00 min 1,81 klux 8,5 C 17,7 C
18.05.2004 21:00 17,6 C 19,1 C 57 % 1022 hPa 0,0 l/m 0,0 m/s (0 Bft) W-NW 290 5,00 min 1,48 klux 9,0 C 17,6 C
18.05.2004 21:05 17,3 C 18,8 C 57 % 1022 hPa 0,0 l/m 1,0 m/s (0 Bft) W22.5 275 0,00 min 1,17 klux 8,7 C 17,3 C
18.05.2004 21:10 17,0 C 18,6 C 58 % 1022 hPa 0,0 l/m 0,9 m/s (0 Bft) W-NW22.5 285 0,00 min 635 lux 8,7 C 17,0 C
18.05.2004 21:15 16,9 C 18,4 C 59 % 1022 hPa 0,0 l/m 1,1 m/s (1 Bft) W-NW22.5 300 0,00 min 525 lux 8,8 C 16,9 C
18.05.2004 21:20 16,8 C 18,2 C 59 % 1022 hPa 0,0 l/m 1,0 m/s (0 Bft) NW22.5 305 0,00 min 368 lux 8,7 C 16,8 C
18.05.2004 21:25 16,5 C 18,0 C 60 % 1022 hPa 0,0 l/m 1,0 m/s (0 Bft) NW22.5 305 0,00 min 301 lux 8,7 C 16,5 C
18.05.2004 21:30 16,4 C 17,8 C 61 % 1022 hPa 0,0 l/m 1,3 m/s (1 Bft) W-NW22.5 295 0,00 min 176 lux 8,9 C 16,4 C
18.05.2004 21:35 16,1 C 17,6 C 62 % 1022 hPa 0,0 l/m 0,0 m/s (0 Bft) W 275 0,00 min 71 lux 8,8 C 16,1 C
18.05.2004 21:40 15,8 C 17,3 C 63 % 1023 hPa 0,0 l/m 0,0 m/s (0 Bft) W 275 0,00 min 50 lux 8,8 C 15,8 C
18.05.2004 21:45 15,7 C 17,2 C 64 % 1023 hPa 0,0 l/m 1,1 m/s (1 Bft) W 275 0,00 min 28 lux 8,9 C 15,7 C
18.05.2004 21:50 15,2 C 16,9 C 65 % 1023 hPa 0,0 l/m 0,0 m/s (0 Bft) W 275 0,00 min 17 lux 8,7 C 15,2 C
18.05.2004 21:55 15,0 C 16,7 C 66 % 1023 hPa 0,0 l/m 0,0 m/s (0 Bft) W 275 0,00 min 12 lux 8,7 C 15,0 C
18.05.2004 22:00 14,7 C 16,5 C 68 % 1023 hPa 0,0 l/m 0,0 m/s (0 Bft) W 275 0,00 min 8 lux 8,9 C 14,7 C
18.05.2004 22:05 14,3 C 16,3 C 70 % 1023 hPa 0,0 l/m 0,0 m/s (0 Bft) W 275 0,00 min 5 lux 8,9 C 14,3 C
18.05.2004 22:10 14,1 C 16,2 C 70 % 1023 hPa 0,0 l/m 0,0 m/s (0 Bft) W 275 0,00 min 4 lux 8,7 C 14,1 C
18.05.2004 22:15 13,7 C 15,7 C 73 % 1023 hPa 0,0 l/m 0,0 m/s (0 Bft) W 275 0,00 min 1 lux 8,9 C 13,7 C
18.05.2004 22:20 13,7 C 15,6 C 73 % 1023 hPa 0,0 l/m 0,0 m/s (0 Bft) W 275 0,00 min 1 lux 8,9 C 13,7 C
18.05.2004 22:25 13,4 C 15,4 C 73 % 1023 hPa 0,0 l/m 0,0 m/s (0 Bft) W 275 0,00 min 0 lux 8,7 C 13,4 C
18.05.2004 22:30 13,2 C 15,2 C 74 % 1023 hPa 0,0 l/m 0,0 m/s (0 Bft) W 275 0,00 min 0 lux 8,7 C 13,2 C
18.05.2004 22:35 13,2 C 15,1 C 74 % 1023 hPa 0,0 l/m 0,0 m/s (0 Bft) W 275 0,00 min 0 lux 8,7 C 13,2 C
18.05.2004 22:40 13,1 C 14,8 C 75 % 1023 hPa 0,0 l/m 0,0 m/s (0 Bft) W 275 0,00 min 0 lux 8,8 C 13,1 C
18.05.2004 22:45 12,8 C 14,7 C 76 % 1023 hPa 0,0 l/m 0,0 m/s (0 Bft) W 275 0,00 min 0 lux 8,7 C 12,8 C
18.05.2004 22:50 12,7 C 14,6 C 77 % 1023 hPa 0,0 l/m 0,0 m/s (0 Bft) W 275 0,00 min 0 lux 8,8 C 12,7 C
18.05.2004 22:55 12,6 C 14,4 C 77 % 1023 hPa 0,0 l/m 0,0 m/s (0 Bft) W 275 0,00 min 0 lux 8,7 C 12,6 C
18.05.2004 23:00 12,4 C 14,2 C 78 % 1023 hPa 0,0 l/m 0,0 m/s (0 Bft) W 275 0,00 min 0 lux 8,7 C 12,4 C
18.05.2004 23:05 12,2 C 14,0 C 79 % 1023 hPa 0,0 l/m 0,0 m/s (0 Bft) W 275 0,00 min 0 lux 8,7 C 12,2 C
18.05.2004 23:10 12,0 C 13,9 C 78 % 1023 hPa 0,0 l/m 0,0 m/s (0 Bft) W 275 0,00 min 0 lux 8,3 C 12,0 C
18.05.2004 23:15 12,0 C 13,8 C 79 % 1023 hPa 0,0 l/m 0,0 m/s (0 Bft) W 275 0,00 min 0 lux 8,5 C 12,0 C
18.05.2004 23:20 11,8 C 13,6 C 80 % 1023 hPa 0,0 l/m 0,0 m/s (0 Bft) W 275 0,00 min 0 lux 8,5 C 11,8 C
18.05.2004 23:25 11,7 C 13,5 C 80 % 1023 hPa 0,0 l/m 0,0 m/s (0 Bft) W 275 0,00 min 0 lux 8,4 C 11,7 C
18.05.2004 23:30 11,9 C 13,4 C 80 % 1023 hPa 0,0 l/m 0,0 m/s (0 Bft) W 275 0,00 min 0 lux 8,6 C 11,9 C
18.05.2004 23:35 11,5 C 13,2 C 81 % 1023 hPa 0,0 l/m 0,0 m/s (0 Bft) W 275 0,00 min 0 lux 8,4 C 11,5 C
18.05.2004 23:40 11,5 C 13,1 C 81 % 1023 hPa 0,0 l/m 0,0 m/s (0 Bft) W 275 0,00 min 0 lux 8,4 C 11,5 C
18.05.2004 23:45 11,3 C 13,0 C 81 % 1023 hPa 0,0 l/m 0,0 m/s (0 Bft) W 275 0,00 min 0 lux 8,2 C 11,3 C
18.05.2004 23:50 11,3 C 12,9 C 82 % 1023 hPa 0,0 l/m 0,0 m/s (0 Bft) W 275 0,00 min 0 lux 8,3 C 11,3 C
18.05.2004 23:55 11,2 C 12,7 C 82 % 1023 hPa 0,0 l/m 0,0 m/s (0 Bft) W 275 0,00 min 0 lux 8,2 C 11,2 C
_ Min-Zeit 05:35 06:10 14:45 02:55 - 00:00 - - - - 12:40 05:35
Minimum _ 7,8 C 8,6 C 34 % 1022 hPa - 0,0 m/s (0 Bft) - - - - 5,8 C 7,8 C
_ Max-Zeit 15:35 15:35 05:35 00:00 00:00 16:40 - - 06:40 12:40 10:05 16:35
Maximum _ 23,4 C 28,3 C 94 % 1023 hPa 0,0 l/m 7,3 m/s
W-NW (4 Bft)
- - 5,00 min 109 klux 10,4 C 23,1 C
Durchschnitt _ 16,0 C 17,4 C 63 % 1023 hPa #0,0 l/m 1,9 m/s (2 Bft) W - #9:40 h 29,9 klux 7,8 C 15,1 C